Find Shi Jian 4

NORAD ID: 22996 Int'l Des: 1994-010 Owner: CASC1 Country: CN operational
MEOELLIPTICALHEO_ELLIPTICAL

Live Position

Loading 3D Globe...

About Shi Jian 4

Description loading...

Upcoming Passes

Passes for default location (London). Set your location on the main map for personalized predictions.

Altitude History

Loading altitude history...

Two-Line Element Set

1 22996U 94010A 26110.34843089 .00000172 00000-0 91979-4 0 9990
2 22996 29.0859 293.7003 5553278 213.2960 94.5101 4.64165941444748
Epoch: Apr 20, 2026 • Age: 17 hours

Current Status

Altitude 17216.5 km
Velocity 2.74 km/s
Sub-Earth Point 15.34°N, 97.78°E
Launch Date Feb 8, 1994
Age 32.1 years
Type other

Technical Details

Classification Payload
Mass 396.00 kg
Dry Mass 396.00 kg
Total Mass 396.00 kg
Length 2.20 m
Diameter 1.60 m
Span 2.20 m
Shape Oct Cyl
Manufacturer CAST
Bus Type SJ-4
Phase Status In Orbit
Owner/State CASC1/CN

Most Searched